When you browse on this site, cookies collect data to enhance your experience and personalize the content and advertising you see.
Visit our Privacy Policy to learn more. By continuing to use the site, you agree to this use of cookies and data.
  • In Sweden
  • List of Countries
  • For 7 days
  • Water Temperature
  • Weather Map
  • Weather Widgets
  • user-avatar
    Login

    Hourly Weather Medina

    Today, 20 September, Friday

    Time Temperature Precipitation Wind Pressure Humidity
    00:00 +30°C° 0 mm 3 mps 689 mmHg 11%
    01:00 +29°C° 0 mm 2 mps 689 mmHg 12%
    02:00 +28°C° 0 mm 2 mps 689 mmHg 14%
    03:00 +27°C° 0 mm 1 mps 688 mmHg 17%
    04:00 +27°C° 0 mm 1 mps 689 mmHg 18%
    05:00 +27°C° 0 mm 2 mps 689 mmHg 19%
    06:00 +26°C° 0 mm 2 mps 689 mmHg 19%
    07:00 +29°C° 0 mm 3 mps 690 mmHg 17%
    08:00 +33°C° 0 mm 4 mps 691 mmHg 14%
    09:00 +36°C° 0 mm 5 mps 691 mmHg 11%
    10:00 +39°C° 0 mm 5 mps 691 mmHg 10%
    11:00 +41°C° 0 mm 5 mps 691 mmHg 9%
    12:00 +45°C° 0 mm 5 mps 691 mmHg 7%
    13:00 +45°C° 0 mm 5 mps 690 mmHg 7%
    14:00 +45°C° 0 mm 4 mps 690 mmHg 7%
    15:00 +45°C° 0 mm 3 mps 689 mmHg 6%
    16:00 +44°C° 0 mm 4 mps 689 mmHg 6%
    17:00 +43°C° 0 mm 4 mps 689 mmHg 6%
    18:00 +42°C° 0 mm 4 mps 689 mmHg 7%
    19:00 +40°C° 0 mm 4 mps 689 mmHg 8%
    20:00 +37°C° 0 mm 4 mps 689 mmHg 8%
    21:00 +35°C° 0 mm 3 mps 689 mmHg 9%
    22:00 +34°C° 0 mm 3 mps 689 mmHg 11%
    23:00 +31°C° 0 mm 3 mps 689 mmHg 12%

    Tomorrow, 21 September, Saturday

    Time Temperature Precipitation Wind Pressure Humidity
    00:00 +30°C° 0 mm 2 mps 688 mmHg 13%
    01:00 +29°C° 0 mm 2 mps 688 mmHg 15%
    02:00 +28°C° 0 mm 2 mps 687 mmHg 16%
    03:00 +27°C° 0 mm 1 mps 687 mmHg 17%
    04:00 +27°C° 0 mm 1 mps 687 mmHg 17%
    05:00 +26°C° 0 mm 1 mps 687 mmHg 18%
    06:00 +26°C° 0 mm 1 mps 688 mmHg 18%
    07:00 +29°C° 0 mm 2 mps 689 mmHg 15%
    08:00 +32°C° 0 mm 2 mps 689 mmHg 12%
    09:00 +37°C° 0 mm 3 mps 690 mmHg 10%
    10:00 +39°C° 0 mm 3 mps 690 mmHg 9%
    11:00 +42°C° 0 mm 3 mps 690 mmHg 8%
    12:00 +44°C° 0 mm 3 mps 690 mmHg 7%
    13:00 +44°C° 0 mm 3 mps 690 mmHg 6%
    14:00 +45°C° 0 mm 3 mps 689 mmHg 6%
    15:00 +45°C° 0 mm 3 mps 689 mmHg 6%
    16:00 +44°C° 0 mm 3 mps 688 mmHg 6%
    17:00 +42°C° 0 mm 3 mps 688 mmHg 7%
    18:00 +40°C° 0 mm 3 mps 687 mmHg 7%
    19:00 +38°C° 0 mm 3 mps 688 mmHg 9%
    20:00 +35°C° 0 mm 2 mps 688 mmHg 11%
    21:00 +32°C° 0 mm 1 mps 688 mmHg 13%
    22:00 +31°C° 0 mm 1 mps 688 mmHg 15%
    23:00 +30°C° 0 mm 1 mps 687 mmHg 16%

    Day after tomorrow, 22 September, Sunday

    Time Temperature Precipitation Wind Pressure Humidity
    00:00 +29°C° 0 mm 1 mps 687 mmHg 18%
    01:00 +28°C° 0 mm 1 mps 687 mmHg 19%
    02:00 +28°C° 0 mm 1 mps 687 mmHg 20%
    03:00 +25°C° 0 mm 0 mps 686 mmHg 21%
    04:00 +25°C° 0 mm 0 mps 686 mmHg 21%
    05:00 +24°C° 0 mm 0 mps 687 mmHg 22%
    06:00 +24°C° 0 mm 0 mps 687 mmHg 23%
    07:00 +27°C° 0 mm 0 mps 688 mmHg 19%
    08:00 +31°C° 0 mm 0 mps 689 mmHg 16%
    09:00 +36°C° 0 mm 1 mps 690 mmHg 12%
    10:00 +39°C° 0 mm 1 mps 690 mmHg 10%
    11:00 +41°C° 0 mm 1 mps 690 mmHg 9%
    12:00 +43°C° 0 mm 2 mps 690 mmHg 7%
    13:00 +45°C° 0 mm 2 mps 689 mmHg 7%
    14:00 +45°C° 0 mm 2 mps 689 mmHg 6%
    15:00 +46°C° 0 mm 3 mps 688 mmHg 6%
    16:00 +44°C° 0 mm 3 mps 688 mmHg 7%
    17:00 +43°C° 0 mm 3 mps 688 mmHg 8%
    18:00 +40°C° 0 mm 3 mps 687 mmHg 9%
    19:00 +38°C° 0 mm 3 mps 687 mmHg 14%
    20:00 +35°C° 0 mm 2 mps 687 mmHg 18%
    21:00 +32°C° 0 mm 2 mps 688 mmHg 23%
    22:00 +31°C° 0 mm 2 mps 688 mmHg 24%
    23:00 +31°C° 0 mm 2 mps 688 mmHg 25%

    23 September, Monday

    Time Temperature Precipitation Wind Pressure Humidity
    00:00 +30°C° 0 mm 1 mps 688 mmHg 26%
    01:00 +29°C° 0 mm 1 mps 687 mmHg 26%
    02:00 +28°C° 0 mm 1 mps 687 mmHg 26%
    03:00 +27°C° 0 mm 1 mps 687 mmHg 26%
    04:00 +27°C° 0 mm 1 mps 687 mmHg 27%
    05:00 +27°C° 0 mm 1 mps 687 mmHg 27%
    06:00 +26°C° 0 mm 1 mps 687 mmHg 28%
    07:00 +29°C° 0 mm 1 mps 688 mmHg 22%
    08:00 +32°C° 0 mm 2 mps 689 mmHg 17%
    09:00 +37°C° 0 mm 2 mps 690 mmHg 12%
    10:00 +39°C° 0 mm 2 mps 690 mmHg 10%
    11:00 +42°C° 0 mm 3 mps 690 mmHg 8%
    12:00 +44°C° 0 mm 3 mps 690 mmHg 6%
    13:00 +45°C° 0 mm 3 mps 689 mmHg 6%
    14:00 +45°C° 0 mm 3 mps 689 mmHg 6%
    15:00 +46°C° 0 mm 3 mps 688 mmHg 5%
    16:00 +43°C° 0 mm 2 mps 688 mmHg 6%
    17:00 +41°C° 0 mm 2 mps 687 mmHg 8%
    18:00 +39°C° 0 mm 1 mps 687 mmHg 9%
    19:00 +36°C° 0 mm 1 mps 687 mmHg 13%
    20:00 +33°C° 0 mm 1 mps 687 mmHg 17%
    21:00 +31°C° 0 mm 1 mps 687 mmHg 21%
    22:00 +31°C° 0 mm 1 mps 687 mmHg 21%
    23:00 +31°C° 0 mm 1 mps 688 mmHg 20%

    24 September, Tuesday

    Time Temperature Precipitation Wind Pressure Humidity
    00:00 +31°C° 0 mm 2 mps 688 mmHg 20%
    01:00 +29°C° 0 mm 2 mps 687 mmHg 20%
    02:00 +28°C° 0 mm 1 mps 687 mmHg 20%
    03:00 +27°C° 0 mm 1 mps 687 mmHg 21%
    04:00 +26°C° 0 mm 1 mps 687 mmHg 20%
    05:00 +26°C° 0 mm 1 mps 687 mmHg 19%
    06:00 +25°C° 0 mm 1 mps 687 mmHg 18%
    07:00 +29°C° 0 mm 2 mps 688 mmHg 15%
    08:00 +32°C° 0 mm 2 mps 689 mmHg 11%
    09:00 +36°C° 0 mm 2 mps 690 mmHg 8%
    10:00 +39°C° 0 mm 3 mps 690 mmHg 7%
    11:00 +42°C° 0 mm 4 mps 690 mmHg 7%
    12:00 +45°C° 0 mm 4 mps 690 mmHg 6%
    13:00 +45°C° 0 mm 4 mps 690 mmHg 6%
    14:00 +46°C° 0 mm 5 mps 689 mmHg 6%
    15:00 +47°C° 0 mm 5 mps 689 mmHg 5%
    16:00 +45°C° 0 mm 5 mps 688 mmHg 7%
    17:00 +42°C° 0 mm 4 mps 688 mmHg 9%
    18:00 +39°C° 0 mm 3 mps 688 mmHg 11%
    19:00 +37°C° 0 mm 3 mps 688 mmHg 15%
    20:00 +34°C° 0 mm 2 mps 688 mmHg 19%
    21:00 +30°C° 0 mm 1 mps 688 mmHg 23%
    22:00 +30°C° 0 mm 1 mps 688 mmHg 23%
    23:00 +29°C° 0 mm 1 mps 687 mmHg 23%

    25 September, Wednesday

    Time Temperature Precipitation Wind Pressure Humidity
    00:00 +29°C° 0 mm 1 mps 687 mmHg 23%
    01:00 +28°C° 0 mm 1 mps 687 mmHg 23%
    02:00 +27°C° 0 mm 1 mps 687 mmHg 23%
    03:00 +25°C° 0 mm 0 mps 687 mmHg 23%
    04:00 +24°C° 0 mm 0 mps 687 mmHg 23%
    05:00 +24°C° 0 mm 0 mps 687 mmHg 23%
    06:00 +23°C° 0 mm 0 mps 687 mmHg 24%
    07:00 +29°C° 0 mm 1 mps 688 mmHg 20%
    08:00 +32°C° 0 mm 1 mps 689 mmHg 16%
    09:00 +37°C° 0 mm 2 mps 690 mmHg 12%
    10:00 +39°C° 0 mm 2 mps 690 mmHg 10%
    11:00 +41°C° 0 mm 2 mps 690 mmHg 9%
    12:00 +42°C° 0 mm 2 mps 690 mmHg 7%
    13:00 +43°C° 0 mm 2 mps 690 mmHg 7%
    14:00 +44°C° 0 mm 3 mps 689 mmHg 6%
    15:00 +45°C° 0 mm 3 mps 689 mmHg 6%
    16:00 +43°C° 0 mm 3 mps 688 mmHg 7%
    17:00 +42°C° 0 mm 3 mps 688 mmHg 8%
    18:00 +39°C° 0 mm 3 mps 688 mmHg 9%
    19:00 +37°C° 0 mm 3 mps 688 mmHg 13%
    20:00 +35°C° 0 mm 2 mps 688 mmHg 17%
    21:00 +32°C° 0 mm 2 mps 688 mmHg 20%
    22:00 +31°C° 0 mm 2 mps 688 mmHg 19%
    23:00 +31°C° 0 mm 3 mps 688 mmHg 18%
    Show more